Flag for Canada Weather past 2 weeks in Arctic Bay, Nunavut, Canada

Now
48 °F

Sunny.


Feels Like: 46 °F
Forecast: 42 / 57 °F
Wind: 6 mph from East

Location: Pond Inlet

Current Time: Jun 30, 2015 at 1:46:57 AM

Latest Report: Jun 30, 2015 at 1:00 AM


Visibility: 9 mi

Pressure: 30.02 "Hg

Humidity: 54%

Dew point: 32 °F

Location of Arctic BayLocation

Historic Weather in Arctic Bay — Graph

°F

Arctic Bay temperature yesterday

Maximum temperature yesterday: 59 °F (at 8:00 PM)
Minimum temperature yesterday: 45 °F (at 10:51 AM)
Average temperature yesterday: 51 °F

Past Weeks' High & Low Weather Summary

 TemperatureHumidityPressure
High59 °F (Jun 28, 4:00 PM)100% (Jun 17, 11:48 PM)30.06 "Hg (Jun 17, 11:48 PM)
Low34 °F (Jun 17, 1:00 AM)27% (Jun 28, 12:00 PM)29.58 "Hg (Jun 20, 7:00 PM)
Average41 °F72%29.76 "Hg
* Reported Midnight between Jun 14 and Jun 15 — Midnight between Jun 29 and Jun 30, Arctic Bay, Weather by CustomWeather, © 2015

Note: Actual official high and low records may vary slightly from our data, if they occured in-between our weather recording intervals... More about our weather records

Advertising

Arctic Bay weather history for previous 24 hours

 ConditionsComfort  
Time TempWeatherWind HumidityBarometerVisibility
12:00 AM
Tue, Jun 30
52 °FSunny.9 mph47%30.01 "Hg9 mi
11:00 PM
Mon, Jun 29
50 °FSunny.3 mph54%30.03 "Hg9 mi
10:00 PM54 °FSunny.7 mph47%30.03 "Hg9 mi
9:00 PM57 °FSunny.13 mph39%30.02 "Hg9 mi
8:00 PM59 °FSunny.15 mph39%30.01 "Hg9 mi
7:00 PM52 °FSunny.21 mph47%30.02 "Hg9 mi
6:00 PM52 °FPassing clouds.20 mph50%30.02 "Hg40 mi
5:00 PM52 °FPassing clouds.22 mph50%30.03 "Hg40 mi
4:00 PM52 °FPassing clouds.23 mph50%30.02 "Hg40 mi
3:00 PM52 °FPassing clouds.20 mph47%30.03 "Hg40 mi
2:00 PM52 °FPassing clouds.20 mph47%30.03 "Hg40 mi
1:00 PM52 °FPassing clouds.22 mph47%30.03 "Hg40 mi
12:00 PM52 °FScattered clouds.20 mph47%30.04 "Hg40 mi
11:00 AM45 °FScattered clouds.5 mph66%30.05 "Hg40 mi
10:51 AM45 °FSunny.3 mph66%30.06 "Hg8 mi
10:00 AM50 °FSunny.2 mph54%30.04 "Hg9 mi
9:00 AM50 °FSunny.3 mph50%30.04 "Hg9 mi
8:00 AM48 °FSunny.2 mph58%30.04 "Hg9 mi
7:00 AM52 °FSunny.12 mph50%30.03 "Hg9 mi
6:00 AM50 °FSunny.2 mph54%30.02 "Hg9 mi
5:00 AM50 °FSunny.7 mph54%30.01 "Hg9 mi
4:00 AM48 °FScattered clouds.5 mph54%30.01 "Hg9 mi
3:00 AM50 °FPartly sunny.8 mph50%30.00 "Hg9 mi
2:00 AM50 °FScattered clouds.10 mph47%29.99 "Hg9 mi
1:00 AM52 °FScattered clouds.10 mph44%29.98 "Hg9 mi
Weather by CustomWeather, © 2015

See weather overviewHow to use our weather pages